This is the latest recevied weather packets stored in our database for station/object N5PRN. If no packets are shown the sender has not sent any weather packets the latest 10 day(s).
| Time | Temp. | Humidity | Pressure | Rain* | Wind** | Luminosity | Snow |
|---|---|---|---|---|---|---|---|
| 1777916779 | 23.33° C | 53% | 1016 hPa | 0 mm | - | 780 W/m² | - |
| 1777916474 | 23.89° C | 50% | 1016.1 hPa | 0 mm | - | 795 W/m² | - |
| 1777916172 | 23.89° C | 55% | 1016.1 hPa | 0 mm | - | 785 W/m² | - |
| 1777915869 | 23.89° C | 51% | 1016.1 hPa | 0 mm | - | 832 W/m² | - |
| 1777915565 | 23.89° C | 51% | 1016 hPa | 0 mm | - | 867 W/m² | - |
| 1777915262 | 23.33° C | 52% | 1016.4 hPa | 0 mm | - | 865 W/m² | - |
| 1777914958 | 23.89° C | 52% | 1016.4 hPa | 0 mm | - | 846 W/m² | - |
| 1777914656 | 23.89° C | 51% | 1016.5 hPa | 0 mm | - | 751 W/m² | - |
| 1777914351 | 23.33° C | 52% | 1016.7 hPa | 0 mm | - | 756 W/m² | - |
| 1777914050 | 23.33° C | 53% | 1016.6 hPa | 0 mm | - | 433 W/m² | - |
| 1777913745 | 23.89° C | 51% | 1016.9 hPa | 0 mm | - | 917 W/m² | - |
| 1777913442 | 23.89° C | 50% | 1016.6 hPa | 0 mm | - | 885 W/m² | - |
| 1777913138 | 23.89° C | 51% | 1016.7 hPa | 0 mm | - | 863 W/m² | - |
| 1777912835 | 24.44° C | 50% | 1016.9 hPa | 0 mm | - | 878 W/m² | - |
| 1777912532 | 23.89° C | 53% | 1016.9 hPa | 0 mm | - | 857 W/m² | - |
| 1777912228 | 23.33° C | 52% | 1017 hPa | 0 mm | - | 890 W/m² | - |
| 1777911924 | 23.89° C | 53% | 1017 hPa | 0 mm | - | 399 W/m² | - |
| 1777911620 | 23.33° C | 53% | 1016.6 hPa | 0 mm | - | 835 W/m² | - |
| 1777911316 | 23.33° C | 56% | 1016.9 hPa | 0 mm | - | 811 W/m² | - |
| 1777911015 | 23.33° C | 53% | 1016.7 hPa | 0 mm | - | 820 W/m² | - |
| 1777910712 | 23.33° C | 55% | 1016.7 hPa | 0 mm | - | 871 W/m² | - |
| 1777910408 | 23.33° C | 57% | 1016.9 hPa | 0 mm | - | 879 W/m² | - |
| 1777910104 | 22.78° C | 57% | 1016.9 hPa | 0 mm | - | 917 W/m² | - |
| 1777909803 | 22.78° C | 57% | 1017 hPa | 0 mm | - | 937 W/m² | - |
| 1777909499 | 22.78° C | 57% | 1016.9 hPa | 0 mm | - | 950 W/m² | - |
* Rain latest hour (hover to see other rain measurements)
** Current wind speed in m/s (hover to see current wind gust speed)